P/2010 U1 ( Boattini )

Japanese version
Home page
Updated on January 7, 2012

---------------------------------------------------------------------

* Profile

Discovery Date October 17, 2010
Magnitude 19.3 mag
Discoverer A. Boattini (Mt. Lemmon)

* Pictures

* Orbital Elements

Epoch 2010 Mar. 25.0 TT = JDT 2455280.5
T 2010 Mar. 28.02700 TT                                 MPC
q   4.9030249            (2000.0)            P               Q
n   0.05738923     Peri.   88.83864     +0.97363465     -0.17971022
a   6.6565486      Node   281.50229     +0.10578200     +0.90138520
e   0.2634284      Incl.    8.24336     +0.20210330     +0.39396569
P  17.2
From 104 observations 2010 Oct. 1-2011 Dec. 28, mean residual 0".5.

* Magnitudes Graph

        m1 = 9.0 + 5 log d + 10.0 log r

---------------------------------------------------------------------

The orbital elements are published on M.P.E.C. 2011-Y66.
The magnitudes graphs are made with Comet for Windows.

---------------------------------------------------------------------

Copyright(C) Seiichi Yoshida (comet@aerith.net). All rights reserved.